Location: Nelson
(41.2830°S, 173.2830°E)
Time: 12:28:25
(UTC+13:00)

Radarsat Rocket - Pass Details

Date: 05 October 2021
Orbit: 933 x 1492 km, 100.6° (Epoch: 27 October)

Event Time Altitude Azimuth Distance (km) Brightness Sun altitude
Rises 20:15:05 0° 165° (SSE) 4,128 7.3 -7.9°
Reaches altitude 10° 20:17:51 10° 165° (SSE) 3,080 6.6 -8.4°
Maximum altitude 20:24:46 84° 252° (WSW) 1,069 4.3 -9.7°
Drops below altitude 10° 20:30:52 10° 339° (NNW) 2,732 6.4 -10.8°
Sets 20:33:12 0° 339° (NNW) 3,635 7.1 -11.2°
